Location: Austin
(30.3000°N, 97.7500°W)
Time: 00:23:30
(UTC-05:00)

Meteor 1-26 Rocket - Pass Details

Date: 15 May 2024
Orbit: 805 x 929 km, 81.3° (Epoch: 19 May)

Event Time Altitude Azimuth Distance (km) Brightness Sun altitude
Exits shadow 22:44:54 66° 185° (S) 1,000 4.3 -26.9°
Maximum altitude 22:45:49 89° 110° (ESE) 928 4.2 -27.1°
Drops below altitude 10° 22:51:53 10° 8° (N) 2,636 7.2 -28.0°
Sets 22:54:23 0° 8° (N) 3,581 8.0 -28.3°
